Location: Ciserano
(45.5833°N, 9.6000°E)
Time: 05:14:25
(UTC+00:00)

Cosmos 1356 - Pass Details

Date: 29 November 2020
Orbit: 440 x 444 km, 81.1° (Epoch: 27 January)

Event Time Altitude Azimuth Distance (km) Brightness Sun altitude
Rises 05:51:14 0° 191° (SSW) 2,417 7.3 -8.4°
Reaches altitude 10° 05:53:17 10° 193° (SSW) 1,553 6.3 -8.1°
Maximum altitude 05:56:40 81° 279° (W) 453 3.3 -7.5°
Drops below altitude 10° 06:00:06 10° 9° (N) 1,569 6.0 -7.0°
Sets 06:02:11 0° 10° (N) 2,446 7.0 -6.6°
